When you browse on this site, cookies collect data to enhance your experience and personalize the content and advertising you see.
Visit our Privacy Policy to learn more. By continuing to use the site, you agree to this use of cookies and data.
  • In Austria
  • List of Countries
  • For 7 days
  • Water Temperature
  • Satellite Maps
  • Weather Map
  • News
  • Weather Widgets
  • user-avatar
    Login

    Hourly Weather Shaki

    Today, 18 July, Thursday

    Time Temperature Precipitation Wind Pressure Humidity
    00:00 +25°C° 0 mm 3 mps 729 mmHg 64%
    01:00 +25°C° 0 mm 2 mps 729 mmHg 64%
    02:00 +25°C° 0 mm 2 mps 729 mmHg 65%
    03:00 +25°C° 0 mm 1 mps 730 mmHg 66%
    04:00 +25°C° 0 mm 1 mps 730 mmHg 65%
    05:00 +26°C° 0 mm 1 mps 730 mmHg 65%
    06:00 +26°C° 0 mm 1 mps 730 mmHg 64%
    07:00 +28°C° 0 mm 1 mps 730 mmHg 59%
    08:00 +29°C° 0 mm 2 mps 730 mmHg 54%
    09:00 +31°C° 0 mm 2 mps 730 mmHg 51%
    10:00 +32°C° 0 mm 2 mps 730 mmHg 48%
    11:00 +34°C° 0 mm 2 mps 729 mmHg 45%
    12:00 +34°C° 0 mm 2 mps 729 mmHg 43%
    13:00 +35°C° 0 mm 2 mps 729 mmHg 41%
    14:00 +36°C° 0 mm 2 mps 729 mmHg 40%
    15:00 +37°C° 0 mm 2 mps 728 mmHg 38%
    16:00 +35°C° 0 mm 1 mps 728 mmHg 39%
    17:00 +35°C° 0 mm 1 mps 729 mmHg 40%
    18:00 +35°C° 0 mm 1 mps 729 mmHg 41%
    19:00 +33°C° 0 mm 1 mps 729 mmHg 43%
    20:00 +32°C° 0 mm 1 mps 729 mmHg 46%
    21:00 +30°C° 0 mm 2 mps 729 mmHg 49%
    22:00 +29°C° 0 mm 2 mps 730 mmHg 49%
    23:00 +28°C° 0 mm 2 mps 730 mmHg 49%

    Tomorrow, 19 July, Friday

    Time Temperature Precipitation Wind Pressure Humidity
    00:00 +27°C° 0 mm 2 mps 730 mmHg 49%
    01:00 +27°C° 0 mm 2 mps 730 mmHg 50%
    02:00 +27°C° 0 mm 1 mps 730 mmHg 51%
    03:00 +26°C° 0 mm 1 mps 730 mmHg 52%
    04:00 +25°C° 0 mm 0 mps 730 mmHg 53%
    05:00 +25°C° 0 mm 0 mps 730 mmHg 53%
    06:00 +26°C° 0 mm 0 mps 731 mmHg 54%
    07:00 +29°C° 0 mm 1 mps 731 mmHg 50%
    08:00 +31°C° 0 mm 1 mps 731 mmHg 47%
    09:00 +32°C° 0 mm 2 mps 731 mmHg 44%
    10:00 +34°C° 0 mm 2 mps 731 mmHg 41%
    11:00 +35°C° 0 mm 3 mps 731 mmHg 39%
    12:00 +37°C° 0 mm 3 mps 731 mmHg 37%
    13:00 +37°C° 0 mm 3 mps 731 mmHg 36%
    14:00 +38°C° 0 mm 3 mps 731 mmHg 35%
    15:00 +38°C° 0 mm 3 mps 731 mmHg 34%
    16:00 +38°C° 0 mm 3 mps 732 mmHg 36%
    17:00 +37°C° 0 mm 3 mps 732 mmHg 37%
    18:00 +37°C° 0 mm 3 mps 732 mmHg 38%
    19:00 +35°C° 0 mm 3 mps 733 mmHg 42%
    20:00 +33°C° 0 mm 3 mps 733 mmHg 46%
    21:00 +30°C° 0 mm 4 mps 733 mmHg 50%
    22:00 +29°C° 0 mm 3 mps 734 mmHg 52%
    23:00 +28°C° 0 mm 3 mps 734 mmHg 53%

    Day after tomorrow, 20 July, Saturday

    Time Temperature Precipitation Wind Pressure Humidity
    00:00 +28°C° 0 mm 2 mps 734 mmHg 55%
    01:00 +27°C° 0 mm 2 mps 734 mmHg 56%
    02:00 +27°C° 0 mm 1 mps 734 mmHg 57%
    03:00 +26°C° 0 mm 1 mps 734 mmHg 58%
    04:00 +27°C° 0 mm 1 mps 734 mmHg 58%
    05:00 +27°C° 0 mm 1 mps 735 mmHg 58%
    06:00 +28°C° 0 mm 1 mps 735 mmHg 58%
    07:00 +29°C° 0 mm 2 mps 735 mmHg 54%
    08:00 +31°C° 0 mm 2 mps 735 mmHg 50%
    09:00 +33°C° 0 mm 3 mps 736 mmHg 46%
    10:00 +34°C° 0 mm 3 mps 736 mmHg 43%
    11:00 +36°C° 0 mm 3 mps 736 mmHg 40%
    12:00 +37°C° 0 mm 3 mps 736 mmHg 37%
    13:00 +38°C° 0 mm 4 mps 736 mmHg 35%
    14:00 +38°C° 0 mm 4 mps 736 mmHg 33%
    15:00 +40°C° 0 mm 4 mps 735 mmHg 31%
    16:00 +40°C° 0 mm 4 mps 736 mmHg 32%
    17:00 +38°C° 0 mm 4 mps 736 mmHg 33%
    18:00 +38°C° 0 mm 4 mps 736 mmHg 34%
    19:00 +36°C° 0 mm 4 mps 737 mmHg 38%
    20:00 +33°C° 0 mm 4 mps 737 mmHg 42%
    21:00 +30°C° 0 mm 4 mps 737 mmHg 46%
    22:00 +29°C° 0 mm 4 mps 737 mmHg 48%
    23:00 +29°C° 0 mm 3 mps 737 mmHg 50%

    21 July, Sunday

    Time Temperature Precipitation Wind Pressure Humidity
    00:00 +28°C° 0 mm 3 mps 737 mmHg 52%
    01:00 +27°C° 0 mm 3 mps 737 mmHg 53%
    02:00 +27°C° 0 mm 2 mps 737 mmHg 54%
    03:00 +27°C° 0 mm 2 mps 737 mmHg 55%
    04:00 +27°C° 0 mm 2 mps 737 mmHg 54%
    05:00 +28°C° 0 mm 3 mps 737 mmHg 53%
    06:00 +28°C° 0 mm 3 mps 737 mmHg 52%
    07:00 +30°C° 0 mm 3 mps 737 mmHg 49%
    08:00 +32°C° 0 mm 4 mps 737 mmHg 45%
    09:00 +34°C° 0 mm 4 mps 737 mmHg 41%
    10:00 +35°C° 0 mm 4 mps 737 mmHg 38%
    11:00 +36°C° 0 mm 5 mps 737 mmHg 36%
    12:00 +37°C° 0 mm 5 mps 736 mmHg 33%
    13:00 +39°C° 0 mm 5 mps 736 mmHg 31%
    14:00 +40°C° 0 mm 5 mps 735 mmHg 30%
    15:00 +40°C° 0 mm 4 mps 735 mmHg 29%
    16:00 +40°C° 0 mm 4 mps 735 mmHg 30%
    17:00 +38°C° 0 mm 4 mps 735 mmHg 31%
    18:00 +38°C° 0 mm 3 mps 735 mmHg 33%
    19:00 +36°C° 0 mm 3 mps 735 mmHg 36%
    20:00 +33°C° 0 mm 3 mps 735 mmHg 40%
    21:00 +30°C° 0 mm 3 mps 735 mmHg 44%
    22:00 +29°C° 0 mm 3 mps 735 mmHg 45%
    23:00 +29°C° 0 mm 3 mps 735 mmHg 47%

    22 July, Monday

    Time Temperature Precipitation Wind Pressure Humidity
    00:00 +28°C° 0 mm 2 mps 735 mmHg 48%
    01:00 +28°C° 0 mm 2 mps 735 mmHg 49%
    02:00 +27°C° 0 mm 1 mps 734 mmHg 50%
    03:00 +27°C° 0 mm 1 mps 734 mmHg 51%
    04:00 +28°C° 0 mm 1 mps 734 mmHg 51%
    05:00 +28°C° 0 mm 1 mps 734 mmHg 51%
    06:00 +29°C° 0 mm 1 mps 734 mmHg 51%
    07:00 +30°C° 0 mm 1 mps 734 mmHg 47%
    08:00 +31°C° 0 mm 2 mps 734 mmHg 44%
    09:00 +34°C° 0 mm 2 mps 734 mmHg 40%
    10:00 +35°C° 0 mm 2 mps 733 mmHg 37%
    11:00 +36°C° 0 mm 3 mps 733 mmHg 34%
    12:00 +38°C° 0 mm 3 mps 733 mmHg 32%
    13:00 +38°C° 0 mm 4 mps 732 mmHg 30%
    14:00 +40°C° 0 mm 4 mps 732 mmHg 29%
    15:00 +41°C° 0 mm 4 mps 731 mmHg 28%
    16:00 +40°C° 0 mm 4 mps 731 mmHg 29%
    17:00 +40°C° 0 mm 4 mps 731 mmHg 30%
    18:00 +38°C° 0 mm 4 mps 731 mmHg 31%
    19:00 +36°C° 0 mm 4 mps 731 mmHg 36%
    20:00 +34°C° 0 mm 3 mps 731 mmHg 40%
    21:00 +31°C° 0 mm 3 mps 732 mmHg 44%
    22:00 +30°C° 0 mm 2 mps 732 mmHg 45%
    23:00 +30°C° 0 mm 2 mps 731 mmHg 45%

    23 July, Tuesday

    Time Temperature Precipitation Wind Pressure Humidity
    00:00 +29°C° 0 mm 2 mps 731 mmHg 46%
    01:00 +28°C° 0 mm 1 mps 731 mmHg 48%
    02:00 +28°C° 0 mm 1 mps 731 mmHg 51%
    03:00 +27°C° 0 mm 1 mps 731 mmHg 53%
    04:00 +27°C° 0 mm 1 mps 731 mmHg 52%
    05:00 +28°C° 0 mm 1 mps 731 mmHg 51%
    06:00 +29°C° 0 mm 1 mps 732 mmHg 50%
    07:00 +30°C° 0 mm 1 mps 731 mmHg 47%
    08:00 +31°C° 0 mm 2 mps 731 mmHg 44%
    09:00 +34°C° 0 mm 2 mps 731 mmHg 41%
    10:00 +35°C° 0 mm 3 mps 731 mmHg 39%
    11:00 +36°C° 0 mm 3 mps 731 mmHg 37%
    12:00 +37°C° 0 mm 3 mps 731 mmHg 35%
    13:00 +37°C° 0 mm 3 mps 730 mmHg 34%
    14:00 +38°C° 0 mm 3 mps 730 mmHg 32%
    15:00 +39°C° 0 mm 3 mps 730 mmHg 31%
    16:00 +38°C° 0 mm 3 mps 730 mmHg 32%
    17:00 +38°C° 0 mm 3 mps 730 mmHg 33%
    18:00 +37°C° 0 mm 3 mps 730 mmHg 35%
    19:00 +35°C° 0 mm 3 mps 730 mmHg 38%
    20:00 +33°C° 0 mm 3 mps 731 mmHg 42%
    21:00 +31°C° 0 mm 2 mps 731 mmHg 45%
    22:00 +30°C° 0 mm 2 mps 731 mmHg 48%
    23:00 +29°C° 0 mm 2 mps 731 mmHg 50%
    Show more